GFSGL_850_temp_306.txt.gz
Temp
11 11 11 11 11 10 10 10 9 9 7 7 6 8 8 8 8 7 7 7 7 6 6 5 5 4 4 4 4 3 3 2 1 2 2 2 2 2 3 3 4 2 1
10 10 11 10 10 10 9 9 8 8 5 6 6 7 7 7 7 6 6 6 6 5 4 4 4 3 3 3 3 3 3 2 0 0 2 2 1 2 -1 -3 -2 -1 -0
9 10 10 10 10 8 8 8 6 6 6 6 7 6 7 6 6 6 5 5 4 4 3 3 3 3 3 3 2 2 2 1 1 -0 1 1 -2 -3 -3 -3 -2 -2 -2
9 9 9 9 8 7 7 5 5 6 6 6 6 6 6 5 5 5 4 3 3 3 2 2 2 2 2 2 2 1 1 0 0 -0 -1 -0 -3 -4 -3 -3 -3 -2 -2
7 7 7 6 6 5 5 5 5 5 5 5 5 5 5 4 4 3 3 3 2 2 2 2 2 1 1 1 0 0 -0 -1 -2 -3 -4 -3 -3 -4 -4 -4 -3 -3 -3
6 5 5 4 4 5 5 5 5 5 5 4 4 3 3 3 3 2 2 2 1 2 2 2 1 0 0 -0 -1 -1 -2 -3 -4 -4 -5 -4 -4 -4 -3 -4 -3 -3 -3
4 4 4 4 4 4 4 4 4 4 3 3 3 3 2 2 2 1 1 1 1 0 0 -0 -0 0 -0 -0 -1 -1 -2 -2 -2 -3 -4 -4 -4 -4 -3 -3 -3 -3 -3
3 3 3 3 3 3 3 3 3 3 3 2 2 2 2 1 1 1 1 0 -0 -1 -1 -1 -1 -1 -1 -1 -2 -2 -3 -3 -3 -3 -4 -4 -4 -3 -4 -3 -4 -3 -3
3 3 3 3 3 3 2 2 2 2 2 2 2 1 1 1 0 -0 -1 -1 -1 -1 -1 -1 -2 -2 -2 -2 -3 -4 -5 -4 -4 -4 -5 -6 -4 -4 -4 -4 -4 -4 -3
2 2 2 2 2 2 2 2 2 1 1 1 1 1 1 0 -1 -1 -2 -2 -2 -2 -1 -2 -3 -3 -3 -4 -7 -7 -7 -5 -6 -6 -5 -5 -4 -4 -4 -4 -4 -4 -4
1 1 1 1 1 1 1 1 1 1 0 0 0 -0 -1 -1 -2 -2 -2 -3 -3 -3 -3 -3 -3 -3 -3 -6 -7 -7 -7 -7 -6 -6 -5 -5 -5 -4 -4 -4 -4 -4 -4
0 0 0 0 0 0 0 -0 -0 -1 -0 -1 -1 -1 -2 -2 -3 -3 -3 -3 -4 -4 -4 -4 -4 -5 -6 -7 -7 -7 -7 -6 -6 -6 -6 -5 -5 -4 -4 -4 -4 -4 -4
-1 -1 -1 -1 -1 -1 -1 -1 -1 -1 -1 -1 -2 -2 -3 -3 -3 -4 -4 -4 -4 -4 -5 -5 -5 -6 -5 -5 -8 -7 -7 -8 -7 -7 -7 -6 -5 -5 -5 -5 -5 -5 -5
-1 -1 -1 -1 -1 -1 -1 -1 -1 -2 -2 -3 -3 -3 -4 -4 -4 -4 -5 -5 -5 -5 -5 -6 -6 -6 -6 -5 -6 -6 -6 -7 -8 -7 -7 -6 -6 -5 -5 -5 -5 -5 -5
-2 -2 -2 -2 -2 -2 -1 -2 -3 -3 -3 -4 -4 -4 -5 -5 -5 -6 -7 -7 -7 -7 -6 -6 -5 -6 -5 -5 -5 -6 -7 -9 -8 -7 -7 -6 -6 -6 -5 -5 -6 -6 -6
-2 -3 -3 -3 -2 -2 -3 -3 -4 -4 -5 -5 -6 -6 -6 -7 -7 -7 -8 -9 -6 -7 -6 -7 -7 -7 -7 -7 -8 -8 -7 -8 -8 -8 -7 -7 -6 -6 -5 -6 -6 -6 -6
-5 -4 -3 -3 -3 -3 -4 -4 -5 -6 -6 -6 -6 -6 -7 -7 -7 -7 -9 -7 -7 -7 -8 -8 -8 -8 -8 -8 -8 -8 -7 -7 -7 -6 -6 -6 -6 -6 -6 -6 -7 -7 -7
-4 -3 -3 -3 -4 -4 -5 -5 -5 -6 -6 -6 -7 -7 -7 -7 -7 -7 -8 -8 -8 -8 -9 -9 -9 -9 -8 -8 -8 -8 -7 -7 -7 -6 -6 -6 -6 -6 -6 -7 -7 -7 -7
-4 -4 -4 -5 -5 -6 -6 -6 -7 -7 -7 -7 -7 -8 -9 -8 -8 -9 -9 -9 -9 -9 -9 -9 -9 -9 -8 -8 -8 -8 -7 -7 -7 -6 -6 -6 -6 -7 -7 -8 -8 -7 -7
-5 -5 -5 -6 -6 -7 -7 -8 -8 -8 -9 -8 -8 -8 -8 -8 -8 -9 -9 -10 -10 -9 -10 -10 -9 -9 -9 -8 -8 -8 -7 -7 -7 -6 -6 -6 -7 -7 -8 -8 -8 -7 -7
-6 -7 -7 -7 -7 -8 -8 -9 -9 -9 -9 -9 -10 -10 -11 -12 -11 -10 -10 -10 -10 -10 -11 -10 -9 -9 -9 -8 -8 -8 -8 -7 -7 -7 -7 -7 -7 -7 -8 -8 -8 -8 -8
-8 -8 -8 -9 -9 -9 -9 -9 -10 -10 -10 -11 -11 -11 -11 -11 -11 -11 -11 -11 -11 -11 -11 -11 -10 -9 -9 -9 -9 -8 -8 -7 -7 -7 -7 -7 -7 -7 -7 -8 -8 -8 -8
-9 -9 -9 -9 -9 -10 -10 -11 -11 -11 -11 -11 -11 -11 -11 -11 -11 -11 -11 -11 -11 -11 -11 -11 -10 -9 -9 -9 -8 -8 -8 -7 -7 -7 -7 -7 -7 -7 -7 -8 -8 -8 -8
-10 -10 -10 -10 -11 -11 -11 -11 -11 -12 -12 -12 -11 -11 -11 -11 -11 -11 -11 -11 -11 -11 -11 -11 -10 -10 -9 -9 -8 -8 -8 -7 -7 -7 -7 -7 -7 -8 -8 -8 -8 -8 -8
-11 -11 -11 -11 -11 -11 -11 -12 -11 -11 -11 -11 -11 -11 -11 -11 -11 -11 -11 -11 -11 -11 -11 -11 -10 -10 -9 -9 -9 -8 -8 -7 -7 -7 -7 -7 -7 -8 -8 -8 -8 -8 -9
-11 -11 -11 -11 -11 -12 -12 -11 -12 -12 -12 -12 -11 -11 -11 -11 -11 -12 -12 -12 -11 -11 -11 -11 -10 -10 -9 -9 -8 -8 -8 -7 -7 -7 -7 -7 -7 -8 -8 -8 -8 -8 -9

GFSGL_850_temp_312.txt.gz
Temp
12 12 12 12 11 11 11 11 11 10 10 10 9 9 9 8 7 8 7 7 7 6 6 6 6 5 4 4 3 3 2 1 -1 2 3 3 3 3 3 3 2 2 1
12 13 12 11 11 11 11 10 10 10 10 9 8 8 7 7 7 7 7 6 6 6 5 5 5 4 3 3 3 2 2 1 -1 -1 2 2 2 2 1 1 1 0 -1
11 11 12 11 11 11 11 10 10 10 9 8 7 6 6 6 6 6 6 6 6 5 5 4 4 3 3 3 3 2 1 1 0 -0 1 0 0 1 1 0 -1 -2 -4
10 10 11 11 11 11 10 10 10 9 9 8 5 5 4 5 6 5 5 5 5 4 4 4 3 3 3 2 2 1 1 1 0 -0 -1 -1 -0 -0 -1 -2 -2 -5 -6
8 8 9 10 10 11 10 9 9 7 7 5 6 3 4 5 5 5 4 4 4 4 3 3 2 2 2 1 0 0 0 -0 -1 -2 -2 -2 -2 -1 -4 -6 -6 -6 -6
6 7 9 9 10 10 9 8 5 6 4 4 4 3 4 4 5 4 4 4 3 3 3 2 2 1 1 1 0 -0 -1 -2 -2 -3 -3 -4 -5 -7 -7 -7 -6 -6 -5
7 7 8 9 8 8 6 8 4 4 4 3 3 3 4 4 3 4 3 3 3 2 2 2 1 1 0 0 -0 -1 -1 -2 -3 -4 -5 -6 -8 -7 -7 -7 -6 -7 -6
6 7 7 7 6 5 5 4 4 2 3 2 2 3 2 3 3 3 2 2 2 1 1 1 1 0 -0 -1 -1 -1 -1 -1 -3 -4 -6 -7 -7 -7 -7 -7 -7 -6 -6
6 6 6 6 5 4 2 2 2 2 2 2 2 2 2 2 2 2 2 1 1 1 0 -0 -1 -1 -1 -1 -1 -1 -1 -2 -4 -5 -8 -7 -7 -8 -8 -7 -7 -7 -6
5 5 4 4 3 3 2 2 2 1 1 1 2 2 2 1 1 1 1 1 0 0 -1 -1 -2 -2 -2 -2 -2 -3 -3 -4 -4 -5 -5 -6 -6 -6 -8 -7 -7 -7 -6
4 4 3 2 1 1 1 1 1 1 1 1 1 1 1 1 0 0 0 -0 -1 -1 -1 -1 -2 -2 -2 -3 -3 -4 -5 -6 -5 -5 -5 -5 -6 -8 -8 -8 -7 -7 -6
2 2 1 0 0 1 1 0 1 1 1 1 0 0 0 -0 -1 -1 -1 -1 -2 -2 -2 -2 -3 -3 -3 -4 -4 -5 -5 -5 -6 -5 -6 -6 -7 -7 -8 -8 -7 -6 -6
1 0 -0 -0 -0 -0 0 0 -0 -0 -0 -0 -0 -0 -1 -2 -2 -2 -3 -3 -3 -3 -3 -3 -3 -4 -4 -5 -5 -5 -6 -6 -6 -6 -6 -7 -7 -7 -7 -7 -6 -6 -6
0 -0 -1 -1 -1 -1 -1 -1 -1 -1 -1 -1 -1 -1 -2 -3 -3 -3 -3 -3 -4 -4 -4 -4 -4 -5 -6 -6 -6 -6 -6 -6 -7 -7 -6 -6 -7 -7 -7 -7 -6 -6 -6
-1 -1 -2 -2 -2 -2 -2 -2 -2 -2 -2 -2 -2 -3 -3 -2 -3 -3 -4 -4 -4 -4 -4 -5 -5 -5 -5 -6 -6 -6 -6 -6 -6 -6 -6 -7 -7 -7 -7 -7 -7 -6 -7
-2 -2 -2 -2 -3 -2 -2 -2 -2 -2 -2 -2 -3 -3 -2 -3 -4 -5 -5 -5 -5 -5 -6 -6 -6 -6 -7 -7 -7 -7 -7 -7 -7 -7 -7 -7 -8 -8 -7 -7 -7 -7 -7
-2 -2 -3 -3 -3 -3 -3 -3 -2 -3 -4 -4 -2 -3 -3 -4 -5 -6 -6 -6 -6 -7 -7 -7 -7 -7 -7 -8 -8 -8 -7 -7 -7 -8 -8 -8 -8 -8 -7 -7 -7 -7 -7
-3 -3 -3 -3 -3 -3 -3 -4 -4 -4 -4 -4 -4 -5 -5 -6 -6 -6 -6 -7 -7 -7 -7 -7 -8 -8 -8 -8 -8 -8 -8 -8 -8 -8 -8 -8 -8 -8 -7 -8 -8 -8 -8
-4 -4 -4 -4 -5 -6 -5 -6 -6 -5 -5 -5 -6 -7 -7 -7 -7 -8 -8 -8 -8 -8 -8 -8 -9 -9 -9 -9 -9 -9 -9 -8 -8 -8 -8 -8 -8 -8 -8 -8 -8 -8 -8
-5 -5 -5 -6 -7 -6 -6 -5 -5 -5 -6 -6 -7 -7 -8 -8 -8 -8 -8 -9 -9 -9 -9 -9 -9 -9 -9 -9 -9 -9 -9 -8 -8 -8 -8 -8 -8 -8 -8 -8 -8 -8 -8
-5 -6 -7 -7 -7 -6 -5 -5 -6 -7 -7 -7 -8 -8 -9 -9 -9 -9 -9 -9 -9 -9 -9 -9 -10 -10 -10 -10 -10 -9 -9 -9 -9 -9 -8 -8 -8 -8 -8 -8 -8 -8 -8
-8 -7 -7 -6 -6 -6 -7 -7 -7 -8 -8 -8 -9 -9 -10 -10 -10 -10 -10 -10 -10 -10 -10 -10 -10 -10 -10 -10 -10 -10 -9 -9 -9 -9 -8 -8 -8 -8 -8 -8 -8 -8 -8
-8 -7 -7 -7 -7 -8 -8 -8 -8 -9 -9 -9 -10 -10 -10 -10 -10 -10 -10 -10 -10 -10 -10 -10 -10 -10 -10 -10 -10 -10 -10 -9 -9 -9 -8 -8 -8 -8 -8 -8 -8 -8 -8
-8 -8 -8 -8 -9 -9 -9 -9 -10 -10 -10 -10 -10 -10 -10 -10 -10 -10 -11 -11 -11 -11 -11 -11 -10 -10 -10 -10 -10 -10 -10 -9 -9 -8 -9 -9 -8 -8 -8 -8 -8 -8 -8
-9 -9 -9 -9 -9 -10 -10 -11 -11 -11 -10 -10 -10 -10 -10 -11 -11 -11 -11 -11 -11 -11 -11 -11 -11 -10 -10 -10 -10 -10 -10 -9 -9 -9 -9 -8 -8 -8 -8 -8 -8 -8 -9
-10 -10 -10 -10 -11 -11 -11 -11 -11 -11 -11 -11 -11 -11 -11 -11 -11 -11 -11 -11 -11 -11 -11 -11 -11 -11 -10 -10 -10 -10 -10 -9 -9 -8 -9 -8 -8 -8 -8 -8 -8 -9 -9

GFSGL_850_temp_318.txt.gz
Temp
14 13 13 12 12 11 11 11 11 11 10 10 10 10 10 9 10 10 9 9 8 8 8 8 6 6 6 6 5 5 4 3 3 4 3 3 4 4 4 3 3 2 2
14 13 13 12 12 12 11 12 11 11 11 11 10 10 9 9 10 9 8 8 7 7 6 7 6 6 6 5 4 3 2 2 2 2 3 3 3 2 2 1 1 -1 -1
14 13 13 13 12 12 12 12 11 11 11 11 10 10 10 10 9 9 8 7 7 6 6 5 5 5 5 4 3 2 2 2 1 -0 0 1 1 1 0 -1 -3 -3 -4
14 13 13 13 13 13 12 12 11 11 11 10 10 9 9 8 8 7 6 6 5 5 5 5 4 4 4 3 2 2 2 2 0 -0 -1 -1 -1 -2 -4 -5 -5 -5 -5
13 12 12 12 12 12 12 11 11 10 10 10 10 9 9 7 6 5 4 5 5 4 4 4 4 3 3 3 2 2 1 0 -0 -1 -2 -2 -3 -5 -6 -6 -6 -6 -5
12 12 11 11 12 11 11 10 10 10 10 9 9 8 7 5 5 3 3 3 3 4 4 4 3 3 2 2 2 1 1 -0 -1 -1 -2 -3 -4 -5 -6 -6 -6 -6 -6
10 10 10 11 10 11 11 10 10 10 10 9 8 5 4 3 2 2 2 3 2 3 3 3 3 2 1 1 1 1 0 -1 -1 -2 -2 -3 -5 -5 -5 -6 -7 -7 -7
9 9 9 9 10 10 10 10 9 9 8 7 4 6 2 2 0 0 1 2 2 2 2 2 2 1 1 0 0 -0 -1 -1 -1 -2 -3 -4 -4 -4 -5 -5 -6 -7 -6
8 9 9 9 8 8 8 8 9 8 5 5 2 3 1 0 -0 0 1 2 2 2 1 1 1 0 0 -0 -0 -1 -1 -1 -2 -2 -3 -4 -4 -4 -4 -5 -4 -5 -7
8 8 8 7 6 5 6 6 6 5 4 2 2 2 -1 -0 -0 1 1 1 2 1 1 0 0 -0 -1 -1 -1 -1 -1 -2 -3 -3 -3 -4 -4 -4 -4 -5 -6 -7 -8
7 6 5 4 5 5 5 5 5 3 2 1 -0 -1 -0 -0 1 1 1 1 0 1 -0 -0 -1 -1 -1 -2 -2 -2 -3 -3 -4 -4 -4 -4 -4 -5 -5 -5 -6 -7 -7
5 4 4 4 5 4 4 3 1 1 0 -1 -1 -1 -1 -0 0 1 1 0 0 -1 -1 -1 -2 -2 -2 -2 -2 -3 -4 -4 -5 -5 -5 -5 -5 -5 -5 -5 -6 -6 -7
3 3 4 4 3 3 2 2 0 -1 -1 -2 -1 -1 -1 -1 -0 -0 -0 -0 -1 -1 -1 -2 -2 -3 -3 -3 -3 -4 -4 -5 -5 -5 -5 -5 -5 -5 -6 -6 -6 -6 -6
3 3 3 3 2 1 0 0 -1 -2 -2 -1 -1 -1 -1 -1 -1 -1 -1 -1 -2 -2 -3 -3 -3 -3 -3 -4 -4 -5 -5 -5 -5 -6 -6 -5 -5 -6 -6 -7 -7 -7 -6
3 3 2 1 -0 -1 -2 -2 -2 -1 -0 -0 -1 -1 -1 -0 -1 -2 -2 -2 -3 -3 -4 -4 -3 -4 -4 -5 -5 -5 -5 -6 -6 -6 -6 -6 -6 -7 -6 -7 -8 -7 -7
2 1 0 -1 -2 -2 -2 -2 -2 -1 -2 -2 -1 -1 -2 -2 -2 -2 -2 -3 -4 -4 -4 -4 -4 -5 -5 -5 -5 -6 -6 -6 -7 -7 -7 -7 -7 -7 -7 -7 -7 -8 -8
0 0 -1 -2 -2 -2 -2 -2 -4 -4 -4 -3 -3 -3 -3 -2 -3 -3 -4 -4 -4 -4 -5 -5 -6 -6 -6 -6 -6 -6 -7 -7 -7 -7 -7 -8 -7 -7 -8 -7 -8 -8 -8
-2 -3 -2 -2 -3 -3 -3 -3 -3 -3 -4 -4 -4 -4 -3 -4 -4 -5 -6 -5 -5 -5 -6 -6 -7 -7 -7 -7 -7 -7 -7 -7 -7 -8 -8 -8 -8 -8 -8 -8 -8 -9 -9
-4 -5 -5 -5 -4 -3 -3 -3 -3 -4 -4 -4 -5 -5 -5 -6 -6 -6 -6 -6 -7 -7 -7 -7 -8 -8 -8 -8 -8 -8 -8 -8 -8 -8 -8 -8 -8 -9 -8 -8 -8 -9 -9
-6 -5 -6 -6 -5 -4 -4 -4 -5 -5 -5 -5 -6 -6 -7 -8 -7 -6 -7 -7 -8 -8 -8 -8 -8 -8 -8 -8 -8 -8 -8 -8 -8 -9 -9 -9 -9 -9 -8 -8 -8 -9 -9
-7 -8 -6 -6 -5 -5 -5 -5 -5 -6 -8 -8 -7 -8 -8 -7 -7 -8 -8 -8 -8 -8 -9 -9 -9 -9 -9 -9 -9 -8 -8 -8 -9 -9 -9 -9 -9 -8 -9 -9 -9 -9 -9
-7 -6 -7 -6 -5 -5 -5 -6 -7 -8 -8 -8 -9 -8 -8 -8 -8 -8 -8 -8 -9 -9 -9 -9 -9 -9 -9 -9 -9 -9 -9 -9 -9 -9 -9 -9 -9 -9 -9 -9 -9 -9 -9
-7 -6 -5 -5 -5 -7 -7 -8 -8 -9 -9 -8 -8 -8 -9 -9 -9 -9 -9 -9 -9 -9 -9 -9 -9 -10 -9 -9 -9 -9 -9 -9 -9 -10 -9 -9 -9 -9 -8 -9 -9 -9 -9
-6 -6 -7 -8 -8 -8 -8 -9 -10 -9 -8 -8 -9 -9 -9 -9 -9 -9 -10 -10 -10 -10 -10 -10 -10 -10 -10 -10 -10 -10 -10 -10 -9 -10 -10 -9 -9 -9 -9 -9 -9 -9 -9
-8 -8 -8 -9 -9 -10 -10 -10 -9 -9 -9 -9 -9 -9 -10 -10 -10 -10 -10 -10 -10 -10 -10 -11 -10 -10 -10 -10 -10 -10 -10 -10 -9 -10 -10 -10 -10 -9 -9 -9 -9 -9 -9
-9 -10 -10 -10 -10 -10 -10 -10 -10 -10 -10 -10 -10 -10 -10 -10 -10 -11 -11 -11 -10 -11 -11 -11 -11 -11 -10 -10 -10 -10 -10 -10 -10 -10 -10 -10 -10 -9 -9 -9 -9 -9 -9

GFSGL_850_temp_321.txt.gz
Temp
12 12 12 12 13 12 12 12 11 11 10 11 10 10 10 10 10 10 10 10 10 9 9 9 8 8 7 7 6 6 6 5 5 5 4 4 4 4 4 4 3 3 2
13 12 12 12 12 12 12 12 11 11 10 11 11 10 10 10 10 10 10 10 9 9 8 8 8 7 7 6 6 5 5 4 3 4 4 4 3 3 3 2 2 1 1
12 12 12 11 11 11 12 12 11 10 11 11 11 11 11 10 9 9 9 9 8 8 7 7 7 7 6 6 5 4 4 4 2 2 2 2 2 2 1 1 -0 -1 -1
13 11 11 11 11 11 12 12 11 11 12 12 12 11 10 10 9 9 9 8 7 7 6 6 5 5 5 5 4 4 3 3 2 1 1 1 0 -0 -1 -2 -2 -3 -2
12 11 11 11 11 11 11 12 12 12 12 11 11 11 11 10 9 8 8 7 7 6 5 5 5 4 4 4 3 3 3 2 1 1 0 -0 -1 -1 -2 -3 -3 -4 -3
10 10 11 11 12 11 12 13 12 12 12 11 10 10 10 9 8 8 6 5 5 4 4 4 4 4 4 3 3 2 2 1 1 -0 -1 -1 -1 -2 -3 -3 -4 -6 -7
10 9 9 10 11 11 12 12 12 11 11 10 10 9 9 9 8 6 3 4 3 3 3 4 4 4 3 3 2 1 1 1 -0 -1 -1 -2 -2 -3 -3 -3 -5 -7 -7
10 9 8 9 9 10 10 11 11 10 10 10 9 9 8 6 6 4 1 2 1 1 1 1 3 3 2 2 1 1 -1 -1 -1 -2 -2 -2 -3 -3 -4 -5 -6 -7 -5
9 8 7 9 9 10 10 10 10 10 10 9 9 6 7 4 2 1 1 1 -0 -0 1 1 1 2 2 1 1 -0 -1 -1 -1 -2 -2 -2 -3 -3 -4 -5 -5 -6 -7
7 7 7 8 9 9 9 9 9 8 8 8 7 5 3 3 -0 0 -0 1 -1 1 0 2 1 1 0 0 -1 -1 -1 -2 -2 -2 -2 -3 -3 -3 -4 -5 -6 -7 -7
6 7 7 7 7 7 7 7 7 6 5 5 3 4 1 0 1 -1 -1 -0 1 1 1 0 0 0 -0 -1 -2 -2 -2 -2 -2 -3 -3 -3 -4 -4 -5 -5 -6 -6 -7
5 5 6 6 6 6 6 5 4 5 5 4 1 1 -1 -0 -1 -2 -1 -0 -0 -0 0 -0 -0 -1 -1 -2 -2 -3 -3 -3 -3 -3 -4 -4 -5 -5 -5 -5 -5 -5 -6
3 3 4 4 5 4 4 4 4 3 2 1 -0 -0 -2 -2 -2 -2 -1 -1 -0 -1 -1 -1 -2 -2 -2 -3 -3 -3 -3 -4 -4 -4 -5 -5 -5 -6 -6 -6 -6 -5 -5
1 2 3 3 3 3 3 2 2 1 0 -0 -1 -2 -3 -3 -2 -1 -1 -1 -1 -1 -1 -2 -3 -3 -3 -3 -4 -4 -4 -4 -5 -5 -5 -6 -6 -6 -6 -6 -6 -6 -6
1 2 3 3 3 3 1 1 0 0 0 0 -1 -2 -2 -2 -3 -2 -1 -1 -1 -2 -3 -3 -3 -3 -3 -4 -4 -5 -5 -5 -5 -6 -6 -6 -6 -6 -6 -6 -6 -7 -8
-0 1 1 2 2 0 -0 -2 -2 -2 -2 -2 -2 -3 -2 -1 -1 -1 -2 -2 -2 -4 -4 -4 -3 -4 -4 -5 -5 -5 -5 -6 -6 -6 -7 -7 -7 -7 -6 -6 -7 -8 -9
-2 -1 -0 -1 -1 -1 -2 -2 -3 -4 -3 -3 -3 -2 -2 -2 -2 -2 -3 -4 -4 -5 -4 -3 -4 -5 -5 -5 -5 -5 -6 -6 -6 -6 -7 -7 -7 -7 -7 -7 -7 -8 -9
-3 -2 -2 -2 -2 -3 -4 -4 -4 -4 -5 -5 -4 -4 -4 -4 -3 -4 -4 -5 -6 -5 -4 -5 -5 -6 -6 -6 -6 -6 -7 -7 -7 -7 -8 -8 -8 -7 -7 -7 -8 -8 -9
-4 -4 -4 -5 -5 -5 -5 -5 -6 -6 -6 -6 -6 -6 -5 -5 -7 -7 -6 -6 -5 -5 -5 -6 -6 -6 -6 -7 -7 -7 -7 -7 -8 -8 -8 -8 -8 -8 -8 -8 -8 -9 -9
-6 -5 -5 -6 -7 -6 -6 -6 -5 -5 -5 -4 -5 -6 -6 -8 -8 -7 -6 -6 -6 -6 -7 -7 -7 -7 -7 -8 -8 -8 -8 -8 -8 -8 -8 -8 -8 -8 -8 -9 -9 -9 -8
-7 -7 -7 -7 -8 -8 -7 -6 -6 -6 -5 -6 -6 -7 -8 -7 -7 -8 -7 -7 -7 -7 -7 -8 -8 -8 -8 -8 -8 -8 -9 -9 -9 -8 -8 -8 -8 -8 -9 -9 -9 -9 -9
-8 -8 -9 -8 -8 -8 -7 -7 -7 -7 -7 -6 -7 -8 -8 -8 -9 -8 -7 -7 -8 -8 -8 -8 -9 -9 -9 -9 -9 -9 -9 -9 -9 -9 -9 -9 -9 -9 -9 -9 -9 -9 -10
-8 -8 -8 -8 -7 -7 -7 -8 -7 -6 -7 -8 -8 -9 -9 -9 -8 -8 -8 -8 -8 -9 -9 -9 -9 -9 -9 -9 -10 -10 -10 -10 -10 -9 -9 -9 -9 -9 -9 -9 -9 -10 -10
-9 -9 -8 -8 -7 -8 -8 -8 -8 -8 -8 -9 -9 -10 -10 -9 -8 -9 -9 -9 -9 -9 -9 -9 -9 -10 -10 -10 -10 -10 -10 -10 -10 -10 -10 -10 -9 -9 -9 -9 -9 -10 -9
-9 -9 -9 -9 -9 -9 -9 -9 -9 -9 -9 -9 -10 -10 -9 -9 -9 -9 -9 -9 -9 -9 -9 -10 -10 -10 -10 -10 -10 -10 -10 -10 -10 -10 -10 -10 -10 -10 -10 -10 -10 -9 -9
-10 -9 -9 -9 -9 -9 -9 -9 -10 -10 -11 -10 -9 -9 -9 -9 -9 -9 -9 -10 -10 -10 -10 -10 -10 -10 -10 -10 -10 -10 -10 -10 -10 -10 -10 -10 -11 -11 -10 -10 -10 -9 -9